Weatherford, OK

7:58 AM CDT on April 22, 2018 (GMT -0500)
Weatherford

Weather History for KOJA - November, 2012

Change the Weather History Date:

Saturday, November 3, 2012

  Actual Average (KJWG) Record (KJWG)
Temperature  
Mean Temperature 52 °F -  
Max Temperature 62 °F 60 °F 82 °F (1978)
Min Temperature 42 °F 38 °F 7 °F (1991)
Degree Days  
Heating Degree Days 13    
Growing Degree Days 2 (Base 50)    
Moisture  
Dew Point 37 °F    
Average Humidity 59    
Maximum Humidity 76    
Minimum Humidity 37    
Precipitation  
Precipitation 0.00 in - - ()
Sea Level Pressure  
Sea Level Pressure 30.13 in    
Wind  
Wind Speed 10 mph (NNE)    
Max Wind Speed 17 mph    
Max Gust Speed 21 mph    
Visibility 10 miles    
Events      
Averages and records for this station are not official NWS values.
T = Trace of Precipitation, MM = Missing Value Source: NWS Daily Summary

Daily Weather History Graph

Daily Weather History Graph

Search for Another Location

Airport or City:

Astronomy

Nov. 03, 2012 Rise Set
Actual Time 7:58 AM CDT 6:37 PM CDT
Civil Twilight 7:32 AM CDT 7:03 PM CDT
Nautical Twilight 7:02 AM CDT 7:33 PM CDT
Astronomical Twilight 6:32 AM CDT 8:03 PM CDT
Moon 10:22 PM CDT (11/3) 12:00 PM CDT (11/3)
Length of Visible Light 11h 31m
Length of Day
10h 38m
Waning Gibbous, 80% of the Moon is Illuminated
Nov 3
Waning Gibbous
Nov 6
Last Quarter
Nov 13
New
Nov 20
First Quarter
Nov 28
Full

Hourly Weather History & Observations

Time (CDT) Temp. Windchill Dew Point Humidity Pressure Visibility Wind Dir Wind Speed Gust Speed Precip Events Conditions
12:15 AM 59.0 °F - 42.8 °F 55% 29.99 in 10.0 mi North 10.4 mph - N/A   Clear
12:35 AM 57.2 °F - 44.6 °F 63% 30.00 in 10.0 mi North 11.5 mph 16.1 mph N/A   Clear
12:55 AM 55.4 °F - 44.6 °F 67% 30.01 in 10.0 mi North 6.9 mph - N/A   Clear
1:15 AM 55.4 °F - 42.8 °F 63% 30.01 in 10.0 mi North 9.2 mph - N/A   Clear
1:35 AM 55.4 °F - 42.8 °F 63% 30.02 in 10.0 mi North 9.2 mph - N/A   Clear
1:55 AM 53.6 °F - 42.8 °F 67% 30.02 in 10.0 mi North 10.4 mph - N/A   Clear
2:15 AM 53.6 °F - 42.8 °F 67% 30.02 in 10.0 mi North 10.4 mph - N/A   Clear
2:35 AM 53.6 °F - 42.8 °F 67% 30.03 in 10.0 mi North 10.4 mph - N/A   Clear
2:55 AM 51.8 °F - 42.8 °F 71% 30.04 in 10.0 mi NNE 9.2 mph - N/A   Clear
3:15 AM 51.8 °F - 41.0 °F 67% 30.04 in 10.0 mi North 10.4 mph - N/A   Clear
3:35 AM 50.0 °F - 41.0 °F 71% 30.04 in 10.0 mi North 11.5 mph - N/A   Clear
3:55 AM 50.0 °F - 41.0 °F 71% 30.06 in 10.0 mi North 9.2 mph - N/A   Clear
4:15 AM 50.0 °F - 41.0 °F 71% 30.06 in 10.0 mi North 11.5 mph 16.1 mph N/A   Clear
4:35 AM 48.2 °F - 39.2 °F 71% 30.06 in 10.0 mi North 11.5 mph - N/A   Clear
4:55 AM 46.4 °F 41.1 °F 39.2 °F 76% 30.07 in 10.0 mi North 11.5 mph - N/A   Clear
5:15 AM 46.4 °F 40.7 °F 37.4 °F 71% 30.08 in 10.0 mi North 12.7 mph - N/A   Clear
5:35 AM 46.4 °F 40.7 °F 37.4 °F 71% 30.09 in 10.0 mi North 12.7 mph - N/A   Clear
5:55 AM 46.4 °F 40.7 °F 37.4 °F 71% 30.09 in 10.0 mi North 12.7 mph - N/A   Clear
6:15 AM 44.6 °F 38.8 °F 37.4 °F 76% 30.10 in 10.0 mi North 11.5 mph - N/A   Clear
6:35 AM 44.6 °F 39.2 °F 37.4 °F 76% 30.11 in 10.0 mi North 10.4 mph - N/A   Clear
6:55 AM 44.6 °F 39.2 °F 37.4 °F 76% 30.12 in 10.0 mi North 10.4 mph - N/A   Clear
7:15 AM 42.8 °F 37.5 °F 35.6 °F 76% 30.13 in 10.0 mi North 9.2 mph - N/A   Clear
7:35 AM 42.8 °F 37.0 °F 35.6 °F 76% 30.13 in 10.0 mi North 10.4 mph - N/A   Clear
7:55 AM 42.8 °F 37.5 °F 35.6 °F 76% 30.13 in 10.0 mi North 9.2 mph - N/A   Clear
8:15 AM 42.8 °F 37.5 °F 35.6 °F 76% 30.14 in 10.0 mi North 9.2 mph - N/A   Clear
8:35 AM 42.8 °F 37.0 °F 35.6 °F 76% 30.15 in 10.0 mi North 10.4 mph - N/A   Clear
8:55 AM 42.8 °F 36.6 °F 35.6 °F 76% 30.17 in 10.0 mi North 11.5 mph - N/A   Clear
9:15 AM 42.8 °F 35.8 °F 35.6 °F 76% 30.18 in 10.0 mi North 13.8 mph - N/A   Clear
9:35 AM 44.6 °F 38.1 °F 35.6 °F 71% 30.18 in 10.0 mi North 13.8 mph 19.6 mph N/A   Clear
9:55 AM 46.4 °F 39.5 °F 35.6 °F 66% 30.19 in 10.0 mi North 17.3 mph 20.7 mph N/A   Clear
10:15 AM 46.4 °F 39.8 °F 35.6 °F 66% 30.20 in 10.0 mi NNE 16.1 mph - N/A   Clear
10:35 AM 50.0 °F - 35.6 °F 58% 30.20 in 10.0 mi NNE 12.7 mph - N/A   Clear
10:55 AM 50.0 °F - 35.6 °F 58% 30.21 in 10.0 mi NNE 11.5 mph - N/A   Clear
11:15 AM 51.8 °F - 35.6 °F 54% 30.21 in 7.0 mi NNE 9.2 mph - N/A   Clear
11:35 AM 51.8 °F - 33.8 °F 50% 30.20 in 10.0 mi NNE 11.5 mph 16.1 mph N/A   Clear
11:55 AM 55.4 °F - 35.6 °F 47% 30.20 in 10.0 mi NNE 12.7 mph - N/A   Clear
12:15 PM 53.6 °F - 35.6 °F 51% 30.20 in 10.0 mi NE 11.5 mph - N/A   Clear
12:35 PM 55.4 °F - 35.6 °F 47% 30.19 in 10.0 mi NE 11.5 mph 17.3 mph N/A   Clear
12:55 PM 55.4 °F - 35.6 °F 47% 30.19 in 10.0 mi NE 13.8 mph - N/A   Clear
1:15 PM 57.2 °F - 35.6 °F 44% 30.19 in 10.0 mi NE 10.4 mph - N/A   Clear
1:35 PM 57.2 °F - 37.4 °F 48% 30.18 in 10.0 mi NE 9.2 mph - N/A   Clear
1:55 PM 59.0 °F - 37.4 °F 45% 30.18 in 10.0 mi NE 8.1 mph - N/A   Clear
2:15 PM 59.0 °F - 37.4 °F 45% 30.17 in 10.0 mi NNE 8.1 mph - N/A   Clear
2:35 PM 60.8 °F - 37.4 °F 42% 30.16 in 10.0 mi NNE 8.1 mph 16.1 mph N/A   Clear
2:55 PM 60.8 °F - 35.6 °F 39% 30.15 in 10.0 mi NE 12.7 mph 18.4 mph N/A   Clear
3:15 PM 60.8 °F - 35.6 °F 39% 30.14 in 10.0 mi NNE 12.7 mph 17.3 mph N/A   Clear
3:35 PM 60.8 °F - 35.6 °F 39% 30.14 in 10.0 mi NNE 11.5 mph - N/A   Clear
3:55 PM 62.6 °F - 35.6 °F 37% 30.14 in 10.0 mi NE 10.4 mph - N/A   Clear
4:15 PM 62.6 °F - 35.6 °F 37% 30.14 in 10.0 mi NNE 9.2 mph 16.1 mph N/A   Clear
4:35 PM 62.6 °F - 35.6 °F 37% 30.14 in 10.0 mi NNE 11.5 mph 16.1 mph N/A   Clear
4:55 PM 62.6 °F - 35.6 °F 37% 30.14 in 10.0 mi NE 11.5 mph 16.1 mph N/A   Clear
5:15 PM 62.6 °F - 35.6 °F 37% 30.14 in 10.0 mi NNE 10.4 mph - N/A   Clear
5:35 PM 60.8 °F - 35.6 °F 39% 30.14 in 10.0 mi NE 10.4 mph 16.1 mph N/A   Clear
5:55 PM 60.8 °F - 35.6 °F 39% 30.14 in 10.0 mi NNE 11.5 mph - N/A   Clear
6:15 PM 60.8 °F - 35.6 °F 39% 30.15 in 10.0 mi NNE 9.2 mph - N/A   Clear
6:35 PM 59.0 °F - 35.6 °F 42% 30.15 in 10.0 mi NNE 9.2 mph - N/A   Clear
6:55 PM 55.4 °F - 35.6 °F 47% 30.16 in 4.0 mi NE 4.6 mph - N/A   Haze
7:15 PM 53.6 °F - 35.6 °F 51% 30.15 in 10.0 mi NE 5.8 mph - N/A   Clear
7:35 PM 53.6 °F - 35.6 °F 51% 30.16 in 10.0 mi NE 4.6 mph - N/A   Clear
7:55 PM 51.8 °F - 35.6 °F 54% 30.17 in 10.0 mi NE 3.5 mph - N/A   Clear
8:15 PM 50.0 °F - 35.6 °F 58% 30.17 in 10.0 mi Calm Calm - N/A   Clear
8:35 PM 51.8 °F - 35.6 °F 54% 30.17 in 10.0 mi North 3.5 mph - N/A   Clear
8:55 PM 50.0 °F - 35.6 °F 58% 30.18 in 10.0 mi North 4.6 mph - N/A   Clear
9:15 PM 48.2 °F - 35.6 °F 62% 30.18 in 10.0 mi NNW 3.5 mph - N/A   Clear
9:35 PM 50.0 °F - 35.6 °F 58% 30.18 in 10.0 mi NW 3.5 mph - N/A   Clear
9:55 PM 46.4 °F 43.5 °F 35.6 °F 66% 30.18 in 10.0 mi North 5.8 mph - N/A   Clear
10:15 PM 46.4 °F 45.2 °F 35.6 °F 66% 30.19 in 10.0 mi NNW 3.5 mph - N/A   Clear
10:35 PM 44.6 °F 41.4 °F 35.6 °F 71% 30.18 in 10.0 mi North 5.8 mph - N/A   Clear
10:55 PM 44.6 °F 42.2 °F 35.6 °F 71% 30.18 in 10.0 mi NNW 4.6 mph - N/A   Clear
11:15 PM 44.6 °F - 35.6 °F 71% 30.18 in 10.0 mi Calm Calm - N/A   Clear
11:35 PM 46.4 °F - 35.6 °F 66% 30.18 in 10.0 mi Calm Calm - N/A   Clear
11:55 PM 46.4 °F - 35.6 °F 66% 30.18 in 10.0 mi Calm Calm - N/A   Clear